sat.trackr.live / text

‹ back to catalog

STARLINK-34100

NORAD 64385 · 2025-127R

PAYLOAD ACTIVE UNKNOWN

§ Identity

Operator
Country
US
Launch date
2025-06-13
Launch site
AFETR
Launch vehicle
Mass (kg)
RCS (m²)

Purposes: comms

External: N2YO · Heavens-Above · Gunter

§ Orbital elements

Epoch: 2026-05-25T04:34:32.505600Z

Period
94.27 min
Inclination
42.9992°
Eccentricity
0.0000822
Mean motion
15.27588428 rev/d
Perigee alt
482.5 km
Apogee alt
483.6 km
Semi-major
6,861.2 km
B*
4.9075e-4
RAAN
108.0267°
Arg perigee
254.6600°
Mean anomaly
105.4161°
Rev number
5,411

§ Raw data

STARLINK-341001 64385U 25127R   26145.19065400  .00013270  00000+0  49075-3 0  99962 64385  42.9992 108.0267 0000822 254.6600 105.4161 15.27588428 54111

JSON: /api/v1/satellites/64385 · /tle

For live sub-satellite position, see the globe view (requires WebGL).

§ Visibility from observer

Set your observer location to see the next 7 days of passes ≥ 10°. The values pass through the URL so the page stays shareable.

No JS? Fill the form by hand. The geolocation button needs JavaScript.